TimeCST,TemperatureF,Dew PointF,Humidity,Sea Level PressureIn,VisibilityMPH,Wind Direction,Wind SpeedMPH,Gust SpeedMPH,PrecipitationIn,Events,Conditions,WindDirDegrees,DateUTC
12:55 AM,26.6,24.8,93,29.86,10.0,Calm,Calm,-,N/A,,Clear,0,2013-11-15 06:55:00
1:15 AM,24.8,24.8,100,29.86,10.0,Calm,Calm,-,N/A,,Clear,0,2013-11-15 07:15:00
1:35 AM,24.8,24.8,100,29.86,10.0,Calm,Calm,-,N/A,,Clear,0,2013-11-15 07:35:00
1:55 AM,24.8,23.0,93,29.86,10.0,Calm,Calm,-,N/A,,Clear,0,2013-11-15 07:55:00
2:15 AM,24.8,24.8,100,29.86,10.0,Calm,Calm,-,N/A,,Clear,0,2013-11-15 08:15:00
2:35 AM,24.8,24.8,100,29.86,10.0,Calm,Calm,-,N/A,,Clear,0,2013-11-15 08:35:00
2:55 AM,24.8,23.0,93,29.86,10.0,Calm,Calm,-,N/A,,Clear,0,2013-11-15 08:55:00
3:15 AM,23.0,23.0,100,29.86,10.0,Calm,Calm,-,N/A,,Clear,0,2013-11-15 09:15:00
3:35 AM,24.8,24.8,100,29.85,10.0,Calm,Calm,-,N/A,,Clear,0,2013-11-15 09:35:00
3:55 AM,23.0,23.0,100,29.85,10.0,Calm,Calm,-,N/A,,Clear,0,2013-11-15 09:55:00
4:15 AM,23.0,23.0,100,29.85,10.0,Calm,Calm,-,N/A,,Clear,0,2013-11-15 10:15:00
4:35 AM,24.8,23.0,93,29.85,10.0,South,3.5,-,N/A,,Clear,180,2013-11-15 10:35:00
4:55 AM,23.0,21.2,93,29.85,10.0,Calm,Calm,-,N/A,,Clear,0,2013-11-15 10:55:00
5:15 AM,23.0,23.0,100,29.84,10.0,Calm,Calm,-,N/A,,Unknown,0,2013-11-15 11:15:00
5:35 AM,23.0,23.0,100,29.83,10.0,Calm,Calm,-,N/A,,Unknown,0,2013-11-15 11:35:00
5:55 AM,23.0,21.2,93,29.83,10.0,Calm,Calm,-,N/A,,Clear,0,2013-11-15 11:55:00
6:15 AM,24.8,23.0,93,29.83,10.0,Calm,Calm,-,N/A,,Clear,0,2013-11-15 12:15:00
6:35 AM,24.8,23.0,93,29.83,10.0,Calm,Calm,-,N/A,,Clear,0,2013-11-15 12:35:00
6:55 AM,23.0,23.0,100,29.84,10.0,Calm,Calm,-,N/A,,Clear,0,2013-11-15 12:55:00
7:15 AM,23.0,23.0,100,29.84,10.0,Calm,Calm,-,N/A,,Clear,0,2013-11-15 13:15:00
7:35 AM,24.8,23.0,93,29.84,10.0,Calm,Calm,-,N/A,,Clear,0,2013-11-15 13:35:00
7:55 AM,26.6,24.8,93,29.84,10.0,Calm,Calm,-,N/A,,Clear,0,2013-11-15 13:55:00
8:15 AM,28.4,26.6,93,29.85,10.0,Calm,Calm,-,N/A,,Clear,0,2013-11-15 14:15:00
8:35 AM,30.2,28.4,93,29.85,10.0,Calm,Calm,-,N/A,,Clear,0,2013-11-15 14:35:00
8:55 AM,32.0,30.2,93,29.85,9.0,Calm,Calm,-,N/A,,Clear,0,2013-11-15 14:55:00
9:15 AM,32.0,32.0,100,29.85,9.0,Calm,Calm,-,N/A,,Clear,0,2013-11-15 15:15:00
9:35 AM,35.6,33.8,93,29.85,10.0,Calm,Calm,-,N/A,,Clear,0,2013-11-15 15:35:00
9:55 AM,39.2,37.4,93,29.84,10.0,Calm,Calm,-,N/A,,Clear,0,2013-11-15 15:55:00
10:15 AM,42.8,39.2,87,29.83,10.0,SSE,5.8,-,N/A,,Clear,160,2013-11-15 16:15:00
10:35 AM,44.6,39.2,81,29.83,10.0,South,6.9,-,N/A,,Clear,180,2013-11-15 16:35:00
10:55 AM,46.4,39.2,76,29.82,10.0,South,5.8,-,N/A,,Clear,190,2013-11-15 16:55:00
11:15 AM,48.2,39.2,71,29.82,10.0,South,6.9,-,N/A,,Clear,180,2013-11-15 17:15:00
11:35 AM,50.0,39.2,66,29.80,10.0,South,10.4,-,N/A,,Clear,180,2013-11-15 17:35:00
11:55 AM,51.8,39.2,62,29.79,10.0,South,8.1,-,N/A,,Clear,180,2013-11-15 17:55:00
12:15 PM,53.6,39.2,58,29.78,10.0,South,10.4,-,N/A,,Clear,190,2013-11-15 18:15:00
12:35 PM,53.6,39.2,58,29.77,10.0,South,15.0,-,N/A,,Clear,180,2013-11-15 18:35:00
12:55 PM,53.6,39.2,58,29.76,10.0,South,11.5,-,N/A,,Clear,170,2013-11-15 18:55:00
1:15 PM,55.4,37.4,51,29.75,10.0,South,18.4,-,N/A,,Clear,180,2013-11-15 19:15:00
1:35 PM,55.4,37.4,51,29.75,10.0,South,18.4,26.5,N/A,,Clear,180,2013-11-15 19:35:00
1:55 PM,55.4,37.4,51,29.74,10.0,South,16.1,27.6,N/A,,Clear,180,2013-11-15 19:55:00
2:15 PM,55.4,37.4,51,29.73,10.0,South,18.4,-,N/A,,Clear,190,2013-11-15 20:15:00
2:35 PM,55.4,37.4,51,29.71,10.0,South,13.8,24.2,N/A,,Clear,180,2013-11-15 20:35:00
2:55 PM,53.6,35.6,51,29.70,10.0,South,11.5,18.4,N/A,,Clear,170,2013-11-15 20:55:00
3:15 PM,53.6,35.6,51,29.69,10.0,SSE,12.7,-,N/A,,Clear,160,2013-11-15 21:15:00
3:35 PM,51.8,35.6,54,29.69,10.0,South,11.5,-,N/A,,Clear,180,2013-11-15 21:35:00
3:55 PM,51.8,35.6,54,29.67,10.0,South,9.2,-,N/A,,Clear,170,2013-11-15 21:55:00
4:15 PM,51.8,35.6,54,29.66,10.0,SSE,6.9,-,N/A,,Clear,150,2013-11-15 22:15:00
4:35 PM,51.8,35.6,54,29.66,10.0,Calm,Calm,-,N/A,,Clear,0,2013-11-15 22:35:00
4:55 PM,50.0,35.6,58,29.65,10.0,SE,5.8,-,N/A,,Clear,130,2013-11-15 22:55:00
5:15 PM,48.2,35.6,62,29.65,10.0,SE,5.8,-,N/A,,Clear,130,2013-11-15 23:15:00
5:35 PM,46.4,33.8,62,29.64,10.0,ESE,4.6,-,N/A,,Clear,120,2013-11-15 23:35:00
5:55 PM,44.6,33.8,66,29.65,10.0,SE,5.8,-,N/A,,Clear,140,2013-11-15 23:55:00
6:15 PM,44.6,33.8,66,29.65,10.0,SE,5.8,-,N/A,,Clear,130,2013-11-16 00:15:00
6:35 PM,44.6,33.8,66,29.66,10.0,SE,5.8,-,N/A,,Unknown,140,2013-11-16 00:35:00
6:55 PM,39.2,32.0,75,29.67,10.0,North,-9999.0,-,N/A,,Clear,0,2013-11-16 00:55:00
7:15 PM,42.8,33.8,70,29.67,10.0,SE,5.8,11.5,N/A,,Clear,140,2013-11-16 01:15:00
7:35 PM,42.8,33.8,70,29.66,10.0,SE,11.5,-,N/A,,Clear,130,2013-11-16 01:35:00
7:55 PM,42.8,33.8,70,29.65,10.0,SE,13.8,-,N/A,,Unknown,130,2013-11-16 01:55:00
8:15 PM,42.8,33.8,70,29.65,10.0,SE,11.5,-,N/A,,Clear,130,2013-11-16 02:15:00
8:35 PM,42.8,33.8,70,29.64,10.0,SE,11.5,-,N/A,,Clear,140,2013-11-16 02:35:00
8:55 PM,41.0,33.8,76,29.63,10.0,SE,9.2,-,N/A,,Clear,140,2013-11-16 02:55:00
9:15 PM,41.0,33.8,76,29.62,10.0,SE,12.7,-,N/A,,Clear,130,2013-11-16 03:15:00
9:35 PM,41.0,33.8,76,29.60,10.0,SE,13.8,-,N/A,,Clear,130,2013-11-16 03:35:00
9:55 PM,41.0,33.8,76,29.59,10.0,SE,15.0,20.7,N/A,,Clear,140,2013-11-16 03:55:00
10:15 PM,39.2,33.8,81,29.58,10.0,SSE,9.2,15.0,N/A,,Clear,150,2013-11-16 04:15:00
10:35 PM,39.2,33.8,81,29.58,10.0,SW,5.8,-,N/A,,Clear,220,2013-11-16 04:35:00
10:55 PM,39.2,35.6,87,29.58,10.0,South,6.9,-,N/A,,Clear,170,2013-11-16 04:55:00
11:15 PM,39.2,35.6,87,29.57,10.0,South,6.9,-,N/A,,Clear,170,2013-11-16 05:15:00
11:35 PM,39.2,35.6,87,29.57,10.0,SSE,9.2,-,N/A,,Clear,160,2013-11-16 05:35:00
11:55 PM,39.2,35.6,87,29.56,10.0,SSE,9.2,-,N/A,,Clear,160,2013-11-16 05:55:00